Wind_Speed
9 9 9 9 8 8 9 9 9 9 9 8 8 8 8 8 8 8 8 9 9 9 10 10 10 9 9 9 9 10 10 11 11 11 11 11 12 12 12 13 13 13 13
10 9 9 9 9 9 9 9 9 9 9 9 9 9 8 8 9 9 9 9 9 10 10 9 10 10 9 9 10 10 10 10 11 11 12 12 12 12 12 13 13 14 14
10 10 9 9 10 10 9 9 9 9 10 10 10 9 9 9 9 9 9 9 10 10 10 10 10 10 9 9 10 10 10 11 11 12 12 12 12 13 13 13 14 14 14
11 11 11 10 10 10 10 9 9 10 10 10 10 10 9 9 9 9 9 9 9 9 9 9 10 10 9 10 10 10 11 11 11 11 11 11 12 12 13 13 13 14 14
12 12 12 12 11 11 11 11 10 10 10 10 10 10 10 10 9 9 9 10 10 10 10 9 10 10 10 10 10 10 11 11 12 11 12 12 12 12 13 13 13 13 14
13 12 12 12 12 12 12 12 11 11 11 11 11 10 10 9 9 9 9 10 10 10 10 10 10 10 10 10 9 10 10 11 11 11 12 12 12 13 13 13 13 13 14
13 13 12 12 13 12 13 13 12 11 12 11 10 10 9 9 10 10 10 10 10 10 10 10 9 10 9 9 9 10 10 11 11 11 11 11 12 12 13 13 13 13 14
14 13 12 13 13 13 13 13 12 12 11 11 10 10 10 10 10 10 10 10 10 10 10 10 10 10 9 10 10 10 11 10 10 11 11 11 11 12 12 12 13 13 13
13 13 13 13 13 13 13 12 12 11 11 12 11 11 11 10 10 11 11 11 11 11 11 10 10 10 10 10 11 11 10 10 10 10 10 11 12 12 12 12 12 12 13
14 14 14 14 14 13 13 13 12 12 12 12 12 12 11 11 11 11 11 11 11 12 12 11 11 11 10 10 11 11 11 10 11 11 11 11 12 13 13 13 13 14 14
14 14 14 14 14 13 13 12 12 12 12 12 13 12 12 12 12 12 12 12 12 12 12 12 11 11 11 10 10 10 10 10 11 11 11 11 12 12 13 14 14 14 14
14 14 14 14 14 14 14 13 13 13 13 13 13 12 12 13 13 13 13 12 12 12 12 12 12 12 12 11 11 11 12 11 11 11 12 12 12 13 14 14 14 14 15
14 14 15 14 15 15 15 14 13 14 14 14 13 13 13 13 13 13 13 13 13 12 12 12 13 13 12 12 12 12 13 12 12 12 12 13 13 14 15 15 15 15 16
15 15 15 15 15 15 15 15 15 15 14 14 14 14 14 14 13 13 13 13 13 13 13 13 13 13 13 13 13 13 13 12 13 13 13 13 14 15 16 16 16 16 17
15 15 15 15 15 15 15 15 14 14 14 14 14 14 14 14 13 13 12 12 12 13 12 13 13 13 14 14 13 13 13 13 13 14 14 14 15 16 17 17 17 18 18
15 15 16 16 15 15 15 15 15 15 15 14 14 14 14 14 13 13 13 12 13 13 12 12 13 13 14 14 14 14 14 14 14 15 15 16 16 17 17 18 18 18 19
16 16 17 16 15 16 15 15 15 15 15 14 14 14 14 14 13 13 13 13 14 14 13 13 14 13 14 14 14 15 15 15 15 16 16 17 18 18 18 18 19 20 21
17 17 17 17 16 16 15 15 15 15 15 14 14 14 15 15 14 14 14 14 14 13 13 13 13 13 13 14 15 15 16 16 16 17 18 18 18 19 19 19 20 21 22
17 16 17 17 16 16 16 16 15 15 15 15 14 14 14 14 14 14 13 13 13 13 13 13 12 13 13 14 15 15 16 17 18 18 19 19 19 19 20 20 21 22 23
16 16 16 16 16 17 17 16 16 15 15 14 14 13 13 14 13 13 13 13 12 12 13 13 13 13 13 14 15 16 17 18 19 19 20 20 21 21 22 22 23 24 24
15 16 17 16 16 16 16 16 16 15 15 14 14 14 14 13 14 13 13 12 12 12 13 13 14 14 15 16 17 17 18 19 19 20 21 21 21 22 23 23 24 25 25
16 16 16 16 16 16 16 16 16 15 15 15 15 15 14 14 14 14 13 13 13 14 14 14 15 15 16 16 17 18 19 20 20 21 22 22 22 23 24 24 25 26 27
15 15 16 15 16 16 16 16 16 15 15 15 15 15 14 14 14 14 14 14 14 15 15 16 16 16 16 16 18 19 20 21 22 22 23 23 24 25 26 26 27 27 28
15 15 15 15 15 16 16 16 16 16 16 16 16 16 15 14 14 15 15 15 15 15 16 16 16 16 17 18 19 20 20 21 22 23 23 24 25 26 27 27 28 29 29
15 15 14 14 15 15 16 16 16 16 16 16 16 16 15 15 15 16 16 15 15 16 16 17 17 18 18 19 20 20 21 22 23 24 24 25 25 26 27 28 29 30 30
14 14 14 14 14 15 16 16 16 16 16 16 16 15 15 15 16 16 16 16 16 16 17 17 18 19 19 20 20 21 22 23 24 24 25 25 26 26 27 28 29 30 30
Wind_Direction
259 261 264 271 277 282 286 291 288 290 296 299 300 301 299 295 293 293 294 295 296 299 298 297 297 289 288 288 287 282 277 277 274 272 271 270 270 267 266 265 263 257 255
259 261 265 271 277 280 283 286 287 290 293 298 298 299 296 294 294 293 292 294 296 298 298 296 297 290 287 287 286 284 282 280 278 274 272 272 270 268 267 265 263 261 259
257 263 267 272 275 278 280 283 287 289 290 293 291 292 293 293 292 293 294 296 296 297 298 296 295 292 291 291 290 287 285 282 280 277 275 272 270 269 268 267 264 265 264
259 261 267 272 276 277 279 282 285 288 288 287 286 288 289 290 291 295 296 296 297 299 300 298 297 298 296 295 292 289 286 283 281 280 278 274 272 270 268 269 267 266 266
262 263 266 270 271 273 278 282 285 286 286 286 286 287 286 286 290 295 295 295 298 298 298 297 296 299 296 294 293 295 293 287 283 281 279 276 274 272 271 270 269 269 268
261 262 267 268 268 272 276 280 281 283 283 285 285 285 287 288 287 291 294 295 294 295 296 298 298 297 295 294 294 295 295 294 289 283 279 277 275 276 274 273 274 274 274
260 259 262 265 269 274 277 276 277 279 278 280 284 287 288 287 286 290 293 294 292 293 296 296 297 297 295 292 293 294 294 295 292 287 284 280 279 278 276 276 275 275 276
260 262 263 266 271 275 275 274 274 275 277 280 283 283 283 284 283 288 291 292 293 293 295 295 294 295 295 292 291 295 293 292 295 289 285 283 283 282 279 278 280 278 279
259 261 263 267 269 273 274 273 271 272 276 279 281 281 281 284 286 288 289 291 291 290 291 293 292 293 294 291 293 295 297 295 296 294 292 288 284 285 285 286 286 284 285
261 262 262 265 267 270 271 273 272 274 276 278 280 281 282 285 288 288 288 289 289 288 286 288 288 290 290 290 292 296 296 294 293 296 294 291 290 289 287 287 287 287 286
260 260 261 265 269 271 270 270 273 274 276 277 278 278 280 283 285 287 287 287 288 288 287 288 288 287 287 287 291 292 295 296 294 293 293 292 291 291 290 287 287 287 286
259 260 262 266 268 269 273 274 273 273 273 274 277 278 278 279 280 283 284 286 287 286 286 288 288 287 287 287 287 290 295 297 297 295 292 290 291 290 290 290 290 288 287
259 260 263 266 268 269 273 275 276 276 274 274 276 278 279 280 280 279 280 281 282 282 284 287 287 286 286 286 286 289 293 294 295 295 293 291 291 291 291 292 291 290 287
259 261 263 266 268 268 270 273 275 277 275 274 276 277 277 279 278 276 277 278 278 279 280 282 284 286 286 285 285 288 289 291 293 293 293 293 293 292 292 292 291 289 288
262 260 260 263 266 267 269 272 274 276 275 275 274 275 276 276 276 274 275 279 279 279 279 280 283 285 285 284 286 288 288 289 289 291 292 294 295 294 294 294 293 290 287
263 260 260 263 266 267 270 271 273 276 277 275 275 273 274 275 277 275 276 277 278 279 281 282 284 284 283 282 284 286 287 287 288 290 291 291 293 294 294 294 293 291 288
263 262 262 264 266 268 267 269 272 275 276 274 274 272 273 276 278 277 277 277 276 278 279 278 280 283 283 281 282 284 286 286 285 288 291 292 291 292 293 293 292 290 289
262 263 264 264 266 266 266 270 273 274 274 274 273 273 273 274 275 277 277 276 276 278 279 279 283 284 283 281 282 283 285 287 288 289 290 291 291 292 292 294 294 294 292
261 262 264 265 266 267 268 269 270 273 272 274 274 274 273 272 275 277 276 274 274 276 276 277 280 283 282 282 283 284 287 288 288 289 289 289 290 290 291 293 295 295 295
262 261 264 267 267 267 266 264 266 270 272 271 271 273 274 274 275 276 273 272 274 276 278 279 281 284 284 285 286 287 288 288 288 288 290 291 291 290 292 293 294 295 294
263 266 268 269 268 268 264 264 265 270 269 268 270 272 273 274 276 273 271 271 273 276 280 282 283 286 287 287 287 289 291 291 291 291 292 293 293 293 294 295 296 296 295
264 267 269 269 268 266 264 264 265 264 265 266 269 273 271 271 274 274 272 275 278 279 281 283 283 285 287 287 288 290 291 292 293 294 295 296 295 295 296 297 297 297 296
265 265 268 269 267 264 263 263 263 266 268 269 270 272 272 273 275 274 274 278 280 280 281 282 283 285 288 289 290 291 293 295 295 296 296 297 297 296 296 296 296 297 297
266 267 268 267 267 264 264 265 264 265 268 269 269 269 270 272 273 275 277 278 279 282 282 282 282 284 286 288 290 293 294 295 295 296 296 297 298 298 297 297 298 298 298
268 268 266 265 268 269 266 265 266 267 269 268 266 266 268 272 274 276 279 281 281 281 281 283 284 286 289 291 293 293 294 294 295 296 297 298 300 301 300 299 299 299 299
267 265 266 268 270 272 271 267 266 268 270 268 270 268 268 270 274 276 279 281 283 283 283 284 286 288 291 292 294 295 295 296 297 298 298 299 300 302 303 304 303 303 303
Height
5888 5888 5888 5888 5887 5887 5886 5885 5884 5884 5883 5882 5881 5880 5879 5878 5877 5876 5875 5874 5873 5872 5870 5869 5868 5867 5866 5865 5864 5864 5863 5863 5862 5862 5861 5861 5861 5861 5860 5860 5860 5859 5859
5886 5886 5886 5886 5885 5885 5884 5884 5883 5882 5881 5880 5879 5878 5877 5876 5875 5874 5873 5872 5871 5870 5868 5867 5866 5864 5864 5863 5862 5862 5861 5860 5860 5859 5859 5858 5858 5858 5858 5857 5857 5857 5857
5884 5884 5884 5884 5884 5883 5882 5882 5881 5880 5879 5878 5877 5876 5875 5874 5873 5872 5871 5870 5869 5868 5866 5865 5864 5862 5861 5861 5860 5859 5859 5858 5857 5857 5856 5856 5855 5855 5855 5854 5854 5854 5854
5882 5882 5882 5882 5881 5881 5880 5880 5879 5878 5877 5876 5875 5875 5874 5872 5871 5870 5869 5868 5867 5865 5864 5863 5862 5861 5859 5858 5858 5857 5856 5855 5855 5854 5853 5853 5853 5852 5852 5852 5851 5851 5851
5879 5879 5879 5879 5879 5879 5878 5878 5877 5876 5875 5874 5873 5872 5871 5870 5869 5868 5867 5866 5865 5863 5862 5861 5860 5859 5857 5856 5856 5855 5854 5853 5852 5851 5851 5850 5850 5850 5849 5849 5848 5848 5848
5876 5877 5876 5876 5876 5876 5876 5875 5874 5874 5873 5872 5871 5870 5869 5868 5867 5866 5865 5864 5863 5861 5860 5859 5858 5857 5856 5855 5854 5853 5851 5850 5849 5848 5848 5847 5847 5847 5846 5846 5846 5845 5845
5873 5874 5874 5874 5874 5873 5873 5872 5871 5871 5870 5870 5869 5868 5867 5866 5865 5864 5863 5862 5860 5859 5858 5857 5856 5855 5854 5852 5851 5850 5849 5848 5847 5846 5845 5845 5844 5844 5843 5843 5843 5842 5841
5870 5871 5871 5871 5871 5870 5870 5869 5869 5868 5867 5867 5866 5866 5865 5865 5863 5862 5860 5859 5858 5857 5856 5855 5854 5852 5851 5850 5849 5848 5847 5845 5844 5843 5843 5842 5841 5841 5840 5840 5839 5839 5838
5867 5868 5868 5868 5868 5867 5867 5866 5866 5865 5865 5864 5864 5863 5862 5862 5861 5859 5858 5857 5856 5854 5853 5852 5851 5850 5849 5848 5847 5846 5844 5843 5842 5841 5840 5839 5839 5838 5837 5837 5836 5835 5835
5864 5865 5865 5865 5865 5864 5864 5863 5863 5863 5862 5862 5861 5860 5860 5859 5858 5857 5855 5854 5853 5852 5851 5850 5849 5848 5846 5846 5845 5843 5842 5841 5840 5839 5838 5837 5836 5835 5834 5834 5833 5832 5831
5861 5861 5861 5861 5861 5861 5861 5860 5860 5860 5859 5859 5858 5857 5856 5855 5855 5854 5853 5851 5850 5849 5848 5847 5846 5845 5844 5843 5842 5841 5839 5838 5837 5836 5835 5834 5833 5832 5832 5831 5830 5829 5828
5858 5858 5858 5858 5858 5858 5858 5857 5857 5857 5856 5855 5855 5854 5853 5852 5851 5850 5849 5848 5847 5846 5844 5843 5842 5842 5841 5840 5839 5838 5836 5835 5835 5834 5833 5832 5831 5830 5828 5827 5826 5826 5825
5855 5855 5855 5855 5855 5854 5854 5854 5853 5853 5853 5852 5851 5850 5850 5848 5848 5847 5846 5845 5844 5843 5841 5840 5839 5838 5837 5836 5836 5835 5834 5833 5832 5831 5830 5828 5827 5826 5825 5824 5823 5822 5821
5851 5851 5851 5851 5851 5851 5850 5850 5850 5849 5849 5848 5847 5847 5846 5845 5844 5843 5842 5842 5840 5840 5838 5837 5835 5834 5833 5833 5832 5831 5830 5829 5828 5828 5826 5825 5824 5823 5822 5820 5819 5818 5817
5847 5847 5847 5847 5847 5847 5846 5846 5846 5845 5845 5844 5844 5843 5842 5841 5840 5839 5838 5838 5837 5836 5835 5833 5831 5830 5829 5829 5828 5828 5827 5826 5825 5824 5823 5822 5820 5819 5818 5816 5815 5814 5812
5843 5843 5843 5843 5843 5843 5842 5842 5842 5841 5841 5840 5840 5839 5838 5837 5836 5835 5835 5834 5833 5832 5830 5829 5827 5826 5825 5825 5825 5824 5823 5823 5821 5820 5819 5818 5816 5815 5813 5812 5810 5809 5807
5839 5839 5839 5839 5839 5839 5838 5838 5838 5837 5837 5836 5835 5835 5834 5833 5833 5832 5831 5830 5829 5828 5826 5825 5824 5822 5821 5821 5821 5820 5819 5818 5817 5816 5815 5813 5812 5810 5809 5807 5805 5804 5802
5834 5834 5835 5835 5835 5834 5834 5834 5834 5833 5833 5832 5832 5831 5830 5829 5829 5828 5826 5826 5825 5824 5823 5822 5820 5819 5818 5818 5817 5816 5815 5814 5813 5811 5810 5808 5807 5805 5804 5802 5800 5798 5797
5830 5830 5830 5830 5830 5830 5830 5830 5829 5829 5828 5828 5827 5827 5826 5825 5825 5823 5822 5821 5821 5820 5819 5818 5817 5816 5815 5814 5813 5812 5811 5809 5808 5807 5805 5803 5802 5800 5798 5797 5795 5793 5791
5826 5826 5826 5826 5825 5825 5825 5825 5825 5824 5824 5823 5823 5823 5822 5821 5821 5819 5818 5817 5817 5816 5815 5814 5814 5812 5811 5810 5809 5808 5806 5805 5803 5801 5800 5798 5796 5795 5793 5791 5789 5787 5785
5821 5821 5821 5821 5821 5821 5821 5820 5820 5820 5819 5819 5819 5818 5818 5817 5816 5816 5815 5814 5813 5812 5811 5810 5809 5808 5807 5806 5805 5803 5802 5800 5798 5796 5794 5793 5791 5789 5787 5785 5782 5780 5778
5817 5817 5817 5816 5816 5816 5816 5816 5816 5815 5815 5814 5814 5814 5813 5813 5812 5812 5811 5810 5809 5809 5808 5807 5806 5804 5803 5801 5800 5798 5797 5795 5793 5791 5789 5787 5784 5782 5780 5778 5775 5773 5770
5812 5812 5812 5812 5811 5811 5811 5811 5811 5810 5810 5810 5809 5809 5809 5808 5808 5807 5807 5806 5805 5804 5803 5802 5801 5800 5798 5797 5795 5794 5792 5790 5787 5785 5783 5781 5778 5776 5773 5771 5768 5765 5762
5808 5807 5807 5807 5807 5807 5807 5806 5806 5806 5805 5805 5805 5804 5804 5804 5803 5803 5803 5802 5801 5800 5799 5798 5797 5795 5793 5792 5790 5788 5786 5784 5782 5779 5777 5774 5772 5769 5766 5763 5760 5758 5754
5803 5803 5803 5803 5803 5802 5802 5801 5801 5801 5801 5800 5800 5800 5799 5799 5799 5798 5798 5797 5796 5795 5794 5793 5791 5790 5788 5786 5785 5783 5780 5778 5776 5773 5770 5768 5765 5761 5758 5755 5752 5749 5746
5799 5799 5799 5799 5798 5798 5797 5797 5797 5796 5796 5796 5795 5795 5795 5794 5794 5793 5793 5792 5791 5790 5789 5787 5786 5784 5783 5781 5779 5777 5774 5772 5769 5767 5764 5761 5758 5755 5752 5748 5745 5741 5737